Weather History for Sparta, TN

Change the Weather History Date:

Tuesday, October 29, 2013

  Actual Average (KCSV) Record (KCSV)
Temperature  
Mean Temperature 55 °F 53 °F  
Max Temperature 69 °F 64 °F 78 °F (2004)
Min Temperature 41 °F 43 °F 22 °F (1957)
Degree Days  
Heating Degree Days 10    
Month to date heating degree days  
Since 1 July heating degree days  
Cooling Degree Days 0    
Month to date cooling degree days  
Year to date cooling degree days  
Growing Degree Days 5 (Base 50)    
Moisture  
Dew Point 52 °F    
Average Humidity 79    
Maximum Humidity 100    
Minimum Humidity 56    
Precipitation  
Precipitation 0.00 in 0.11 in 1.58 in (1970)
Month to date precipitation 2.83  
Year to date precipitation 44.83  
Sea Level Pressure  
Sea Level Pressure 30.26 in    
Wind  
Wind Speed 3 mph (South)    
Max Wind Speed 8 mph    
Max Gust Speed -    
Visibility 8 miles    
Events      
T = Trace of Precipitation, MM = Missing Value Source: NWS Daily Summary

Daily Weather History Graph

Daily Weather History Graph

Search for Another Location

Airport:

Trip Planner

Search our weather history database for the weather conditions in past years. The results will help you decide how hot, cold, wet, or windy it might be!

Date:

Astronomy

Oct. 29, 2013 Rise Set
Actual Time 7:02 AM CDT 5:49 PM CDT
Civil Twilight 6:35 AM CDT 6:15 PM CDT
Nautical Twilight 6:05 AM CDT 6:45 PM CDT
Astronomical Twilight 5:35 AM CDT 7:15 PM CDT
Moon 2:00 AM CDT (10/29) 2:54 PM CDT (10/29)
Length of Visible Light 11h 39m
Length of Day
10h 47m
Waning Crescent, 25% of the Moon is Illuminated
Oct 29
Waning Crescent
Nov 3
New
Nov 9
First Quarter
Nov 17
Full
Nov 25
Last Quarter

Hourly Weather History & Observations

Time (CDT) Temp. Dew Point Humidity Pressure Visibility Wind Dir Wind Speed Gust Speed Precip Events Conditions
12:35 AM 46.4 °F 46.4 °F 100% 30.27 in 0.2 mi Calm Calm - N/A   Overcast
12:55 AM 48.2 °F 46.4 °F 93% 30.28 in 0.2 mi Calm Calm - N/A   Overcast
1:15 AM 46.4 °F 46.4 °F 100% 30.28 in 0.2 mi Calm Calm - N/A   Overcast
1:35 AM 44.6 °F 44.6 °F 100% 30.28 in 0.2 mi Calm Calm - N/A   Overcast
1:55 AM 44.6 °F 44.6 °F 100% 30.28 in 0.2 mi Calm Calm - N/A   Overcast
2:15 AM 44.6 °F 44.6 °F 100% 30.29 in 0.2 mi Calm Calm - N/A   Overcast
2:35 AM 44.6 °F 42.8 °F 93% 30.28 in 0.2 mi Calm Calm - N/A   Overcast
2:55 AM 44.6 °F 44.6 °F 100% 30.28 in 0.2 mi Calm Calm - N/A   Overcast
3:15 AM 44.6 °F 44.6 °F 100% 30.28 in 0.8 mi Calm Calm - N/A   Overcast
3:35 AM 44.6 °F 44.6 °F 100% 30.28 in 3.0 mi Calm Calm - N/A   Scattered Clouds
3:55 AM 44.6 °F 44.6 °F 100% 30.28 in 0.8 mi Calm Calm - N/A   Mostly Cloudy
4:15 AM 44.6 °F 44.6 °F 100% 30.29 in 0.2 mi Calm Calm - N/A   Overcast
5:55 AM 42.8 °F 42.8 °F 100% 30.30 in 0.2 mi Calm Calm - N/A   Overcast
6:55 AM 41.0 °F 41.0 °F 100% 30.30 in 0.8 mi Calm Calm - N/A   Overcast
7:55 AM 44.6 °F 44.6 °F 100% 30.30 in 4.0 mi Calm Calm - N/A   Partly Cloudy
9:35 AM 60.8 °F 53.6 °F 77% 30.32 in 10.0 mi South 4.6 mph - N/A   Clear
9:55 AM 60.8 °F 55.4 °F 82% 30.32 in 10.0 mi Variable 4.6 mph - N/A   Clear
10:15 AM 62.6 °F 55.4 °F 77% 30.32 in 10.0 mi South 4.6 mph - N/A   Clear
10:35 AM 64.4 °F 55.4 °F 73% 30.32 in 10.0 mi South 5.8 mph - N/A   Clear
10:55 AM 62.6 °F 55.4 °F 77% 30.32 in 10.0 mi South 6.9 mph - N/A   Scattered Clouds
11:15 AM 64.4 °F 55.4 °F 73% 30.33 in 10.0 mi SSW 8.1 mph - N/A   Mostly Cloudy
11:35 AM 62.6 °F 53.6 °F 72% 30.32 in 10.0 mi South 6.9 mph - N/A   Mostly Cloudy
11:55 AM 64.4 °F 55.4 °F 73% 30.31 in 10.0 mi SSE 6.9 mph - N/A   Mostly Cloudy
12:15 PM 66.2 °F 55.4 °F 68% 30.30 in 10.0 mi Variable 6.9 mph - N/A   Partly Cloudy
12:35 PM 66.2 °F 55.4 °F 68% 30.28 in 10.0 mi SSE 8.1 mph - N/A   Clear
12:55 PM 66.2 °F 55.4 °F 68% 30.26 in 10.0 mi South 8.1 mph - N/A   Partly Cloudy
1:15 PM 66.2 °F 55.4 °F 68% 30.25 in 10.0 mi SSW 6.9 mph - N/A   Partly Cloudy
1:35 PM 69.8 °F 55.4 °F 60% 30.25 in 10.0 mi Variable 5.8 mph - N/A   Clear
1:55 PM 69.8 °F 55.4 °F 60% 30.25 in 10.0 mi SW 4.6 mph - N/A   Partly Cloudy
2:15 PM 69.8 °F 55.4 °F 60% 30.25 in 10.0 mi South 5.8 mph - N/A   Mostly Cloudy
2:35 PM 69.8 °F 53.6 °F 56% 30.24 in 10.0 mi Calm Calm - N/A   Mostly Cloudy
2:55 PM 69.8 °F 53.6 °F 56% 30.24 in 10.0 mi Calm Calm - N/A   Mostly Cloudy
3:15 PM 69.8 °F 55.4 °F 60% 30.23 in 10.0 mi SSE 5.8 mph - N/A   Mostly Cloudy
3:35 PM 68.0 °F 55.4 °F 64% 30.23 in 10.0 mi South 3.5 mph - N/A   Mostly Cloudy
3:55 PM 68.0 °F 55.4 °F 64% 30.23 in 10.0 mi SSE 3.5 mph - N/A   Mostly Cloudy
4:15 PM 66.2 °F 55.4 °F 68% 30.24 in 10.0 mi Calm Calm - N/A   Partly Cloudy
4:35 PM 66.2 °F 55.4 °F 68% 30.22 in 10.0 mi SSE 4.6 mph - N/A   Clear
4:55 PM 66.2 °F 55.4 °F 68% 30.22 in 10.0 mi SSE 4.6 mph - N/A   Clear
5:15 PM 64.4 °F 55.4 °F 73% 30.21 in 10.0 mi SSE 6.9 mph - N/A   Clear
5:35 PM 64.4 °F 55.4 °F 73% 30.21 in 10.0 mi SE 5.8 mph - N/A   Clear
5:55 PM 64.4 °F 55.4 °F 73% 30.20 in 10.0 mi SE 3.5 mph - N/A   Clear
6:15 PM 62.6 °F 55.4 °F 77% 30.21 in 10.0 mi SSE 4.6 mph - N/A   Clear
6:35 PM 62.6 °F 55.4 °F 77% 30.21 in 10.0 mi SSE 3.5 mph - N/A   Clear
6:55 PM 62.6 °F 53.6 °F 72% 30.22 in 10.0 mi SSE 4.6 mph - N/A   Clear
7:15 PM 62.6 °F 53.6 °F 72% 30.21 in 10.0 mi SSE 3.5 mph - N/A   Clear
7:35 PM 62.6 °F 53.6 °F 72% 30.22 in 10.0 mi SW 4.6 mph - N/A   Clear
7:55 PM 62.6 °F 53.6 °F 72% 30.22 in 10.0 mi South 5.8 mph - N/A   Mostly Cloudy
8:15 PM 62.6 °F 53.6 °F 72% 30.22 in 10.0 mi South 4.6 mph - N/A   Mostly Cloudy
8:35 PM 62.6 °F 55.4 °F 77% 30.22 in 10.0 mi South 5.8 mph - N/A   Unknown
8:55 PM 62.6 °F 55.4 °F 77% 30.22 in 10.0 mi South 5.8 mph - N/A   Overcast
9:15 PM 62.6 °F 55.4 °F 77% 30.22 in 10.0 mi South 4.6 mph - N/A   Overcast
9:35 PM 62.6 °F 55.4 °F 77% 30.22 in 10.0 mi South 5.8 mph - N/A   Overcast
9:55 PM 62.6 °F 55.4 °F 77% 30.22 in 10.0 mi South 6.9 mph - N/A   Unknown
10:15 PM 62.6 °F 55.4 °F 77% 30.22 in 10.0 mi South 5.8 mph - N/A   Mostly Cloudy
10:35 PM 62.6 °F 55.4 °F 77% 30.22 in 10.0 mi South 6.9 mph - N/A   Overcast
10:55 PM 62.6 °F 55.4 °F 77% 30.22 in 10.0 mi South 4.6 mph - N/A   Mostly Cloudy
11:15 PM 62.6 °F 55.4 °F 77% 30.22 in 10.0 mi South 5.8 mph - N/A   Overcast
11:35 PM 60.8 °F 55.4 °F 82% 30.22 in 10.0 mi Calm Calm - N/A   Scattered Clouds
11:55 PM 60.8 °F 55.4 °F 82% 30.21 in 10.0 mi South 4.6 mph - N/A   Unknown